Regional Weather Roundup
Issued by NWS Newport/Morehead, NC

Current Version | Previous Version | Graphics & Text | Print | Product List | Glossary Off
Versions: 1 2 3 4 5 6 7 8 9 10 11 12 13 14 15 16 17 18 19 20 21 22 23 24 25 26 27 28 29 30 31 32 33 34 35 36 37 38 39 40 41 42 43 44 45 46 47 48 49 50

000
ASUS42 KMHX 180725
RWRMHX
WEATHER ROUNDUP FOR EASTERN NORTH CAROLINA
NATIONAL WEATHER SERVICE NEWPORT/MOREHEAD CITY NC
200 AM EST MON DEC 18 2017

NOTE: "FAIR" INDICATES FEW OR NO CLOUDS BELOW 12,000 FEET
WITH NO SIGNIFICANT WEATHER AND/OR OBSTRUCTIONS TO VISIBILITY

NCZ015>017-031-032-045>047-102-103-180800-
NORTH COAST

CITY           SKY/WX    TMP DP  RH WIND       PRES   REMARKS
EDENTON        PTCLDY    45  42  89 CALM      30.18S
ELIZABETH CITY CLOUDY    45  42  89 SW6       30.17S
KITTY HAWK     CLOUDY    47  39  73 CALM      30.17R
MANTEO         CLOUDY    46  42  87 W3        30.18S

$$

NCZ045>047-081-094-103-104-180800-
CENTRAL COAST

CITY           SKY/WX    TMP DP  RH WIND       PRES   REMARKS
FRISCO         CLOUDY    49  47  93 VRB3      30.19R

$$

NCZ095-097-098-100-101-180800-
SOUTHERN COAST

CITY           SKY/WX    TMP DP  RH WIND       PRES   REMARKS
BEAUFORT       CLOUDY    54  45  71 SW6       30.19F
CEDAR ISLAND   NOT AVBL
JACKSONVILLE   CLOUDY    51  49  92 CALM      30.18F
PINEY ISLAND     N/A    N/A N/A N/A S7        30.18F
WILMINGTON     CLOUDY    53  49  86 CALM      30.19F


$$

NCZ011>013-027>030-043-044-078>080-089-090>093-098-180800-
COASTAL PLAIN

CITY           SKY/WX    TMP DP  RH WIND       PRES   REMARKS
AHOSKIE        CLOUDY    37  37 100 CALM      30.17S FOG
CLINTON        CLOUDY    50  42  73 CALM      30.18F
ELIZABETHTOWN  NOT AVBL
GOLDSBORO      CLOUDY    50  40  68 CALM      30.16R
GREENVILLE     CLOUDY    48  41  76 CALM      30.19S
HAVELOCK       CLOUDY    52  46  80 S6        30.19F
KENANSVILLE    CLOUDY    50  45  81 CALM      30.18S
KINSTON        NOT AVBL
NEW BERN       CLOUDY    50  47  89 S3        30.18F
RICHLANDS      CLOUDY    51  47  86 SW3       30.19S
ROCKY MOUNT    CLOUDY    46  44  93 CALM      30.18S
WASHINGTON     CLOUDY    47  43  86 CALM      30.19R
WHITEVILLE     CLOUDY    52  47  81 CALM      30.18F

$$

AMZ130-135-150-152-154-156-158-170-250-252-270-ANZ085-086-088-633-658-670-180800-
MARINE OBSERVATIONS

STATION/POSITION TIME  TEMP    WIND        PRES    WAVE   SWELL
                       AIR SEA DIR/SP/G            HT/PER HT/PER
                 (UTC) (F)     (DEG/KT/KT) (MB)    (FT/S) (FT/S)
CHESAPEAKE LIGHT NOT AVBL
64 E VA BEACH    0650   53 58  260/ 12/ 16 1021.9    2/ 4
DUCK             0700   48 52  240/ 10/ 12 1021.2
2 E DUCK         0700      54                N/A     1/10
OREGON INLET     0700   46 45  240/  6/  7 1022.0
13E OREGON INLT  0648      54                N/A     2/10   2/10
HATTERAS CG      0700   49 52  320/  3/  5 1022.0
DIAMOND BUOY     0710   57 72  300/  8/ 12 1022.4
CAPE LOOKOUT     0700          300/  2/  3 1022.7
BEAUFORT LAB     0700   53 50  230/  2/  4 1022.1
30 SE NEW RVR IN 0708   58 63  360/  4/  6 1022.3
30 SE NEW RVR IN 0700      63                N/A     1/10
27 SE WRIGHTSVLE 0708   59 60   30/  4/  4 1022.5
5 SE WRIGHTSVLE  0708   55 56  360/  2/  4 1022.3
225 S CAPE HAT   0650   69 74  230/  8/ 12 1023.6    2/10   2/10
41 SE CHARLESTON 0710   71 73  230/ 14/ 16 1021.8

$$



USA.gov is the U.S. government's official web portal to all federal, state and local government web resources and services.